Weather History for Falfurrias, TX

Change the Weather History Date:

Sunday, January 6, 2013

  Actual Average (KNQI) Record (KNQI)
Temperature  
Mean Temperature 58 °F -  
Max Temperature 69 °F 66 °F 81 °F (1998)
Min Temperature 47 °F 46 °F 0 °F (2011)
Degree Days  
Heating Degree Days 7    
Growing Degree Days 8 (Base 50)    
Moisture  
Dew Point 44 °F    
Average Humidity 66    
Maximum Humidity 90    
Minimum Humidity 30    
Precipitation  
Precipitation 0.00 in - - ()
Sea Level Pressure  
Sea Level Pressure 30.30 in    
Wind  
Wind Speed 4 mph (NNW)    
Max Wind Speed 9 mph    
Max Gust Speed 17 mph    
Visibility 10 miles    
Events      
Averages and records for this station are not official NWS values.
T = Trace of Precipitation, MM = Missing Value Source: NWS Daily Summary

Daily Weather History Graph

Daily Weather History Graph

Search for Another Location

Airport:

Trip Planner

Search our weather history database for the weather conditions in past years. The results will help you decide how hot, cold, wet, or windy it might be!

Date:

Astronomy

Jan. 06, 2013 Rise Set
Actual Time 7:23 AM CST 5:53 PM CST
Civil Twilight 6:57 AM CST 6:19 PM CST
Nautical Twilight 6:29 AM CST 6:48 PM CST
Astronomical Twilight 6:00 AM CST 7:16 PM CST
Moon 1:51 AM CST (1/6) 1:12 PM CST (1/6)
Length of Visible Light 11h 21m
Length of Day
10h 30m
Waning Crescent, 33% of the Moon is Illuminated
Jan 6
Waning Crescent
Jan 11
New
Jan 18
First Quarter
Jan 26
Full
Feb 3
Last Quarter

Hourly Weather History & Observations

Time (CST) Temp. Dew Point Humidity Pressure Visibility Wind Dir Wind Speed Gust Speed Precip Events Conditions
12:15 AM 54.5 °F 48.2 °F 79% 30.29 in 10.0 mi Calm Calm - N/A   Overcast
12:35 AM 54.5 °F 47.8 °F 78% 30.29 in 10.0 mi NNW 3.5 mph - N/A   Overcast
1:15 AM 54.1 °F 48.0 °F 80% 30.29 in 10.0 mi NW 3.5 mph - N/A   Overcast
1:35 AM 54.3 °F 47.5 °F 78% 30.29 in 10.0 mi NW 4.6 mph - N/A   Overcast
1:55 AM 54.1 °F 47.3 °F 78% 30.29 in 10.0 mi WNW 4.6 mph - N/A   Overcast
2:15 AM 53.8 °F 47.3 °F 79% 30.29 in 10.0 mi NW 3.5 mph - N/A   Overcast
2:35 AM 53.6 °F 47.3 °F 79% 30.28 in 10.0 mi NW 4.6 mph - N/A   Overcast
2:55 AM 53.8 °F 47.7 °F 80% 30.28 in 10.0 mi NW 4.6 mph - N/A   Overcast
3:15 AM 54.0 °F 47.8 °F 80% 30.29 in 10.0 mi WNW 5.8 mph - N/A   Overcast
3:35 AM 54.1 °F 47.5 °F 78% 30.29 in 10.0 mi NW 5.8 mph - N/A   Overcast
3:55 AM 53.2 °F 47.3 °F 80% 30.28 in 10.0 mi NW 6.9 mph - N/A   Overcast
4:15 AM 52.7 °F 46.8 °F 80% 30.28 in 10.0 mi NW 5.8 mph - N/A   Scattered Clouds
4:35 AM 52.7 °F 46.6 °F 80% 30.28 in 10.0 mi NW 4.6 mph - N/A   Mostly Cloudy
5:15 AM 52.7 °F 46.4 °F 79% 30.29 in 10.0 mi NW 3.5 mph - N/A   Overcast
5:35 AM 52.7 °F 46.4 °F 79% 30.28 in 10.0 mi NNW 3.5 mph - N/A   Overcast
6:15 AM 51.3 °F 46.0 °F 82% 30.28 in 10.0 mi NNW 4.6 mph - N/A   Mostly Cloudy
6:35 AM 50.7 °F 45.9 °F 83% 30.28 in 10.0 mi NNW 3.5 mph - N/A   Scattered Clouds
6:55 AM 50.4 °F 45.5 °F 83% 30.29 in 10.0 mi NNW 3.5 mph - N/A   Scattered Clouds
7:15 AM 50.9 °F 45.9 °F 83% 30.31 in 10.0 mi NNW 3.5 mph - N/A   Overcast
7:35 AM 50.9 °F 45.5 °F 82% 30.32 in 10.0 mi NW 5.8 mph - N/A   Overcast
7:55 AM 50.4 °F 45.0 °F 82% 30.33 in 10.0 mi NW 5.8 mph - N/A   Overcast
8:15 AM 50.9 °F 44.8 °F 80% 30.34 in 10.0 mi NW 4.6 mph - N/A   Mostly Cloudy
8:35 AM 51.8 °F 45.0 °F 77% 30.34 in 10.0 mi NW 5.8 mph - N/A   Clear
9:35 AM 56.3 °F 45.7 °F 68% 30.35 in 10.0 mi NNW 4.6 mph - N/A   Clear
9:55 AM 56.3 °F 45.7 °F 68% 30.35 in 10.0 mi NNW 5.8 mph - N/A   Clear
10:15 AM 56.5 °F 45.5 °F 67% 30.36 in 10.0 mi NNW 9.2 mph - N/A   Clear
10:35 AM 57.4 °F 46.2 °F 66% 30.36 in 10.0 mi North 4.6 mph - N/A   Clear
11:15 AM 62.1 °F 46.2 °F 56% 30.35 in 10.0 mi North 6.9 mph - N/A   Clear
11:35 AM 62.8 °F 46.0 °F 54% 30.34 in 10.0 mi NNW 8.1 mph - N/A   Clear
11:55 AM 63.7 °F 45.7 °F 52% 30.34 in 10.0 mi NNW 9.2 mph - N/A   Clear
12:15 PM 65.3 °F 44.6 °F 47% 30.33 in 10.0 mi NNW 6.9 mph - N/A   Clear
1:15 PM 66.9 °F 41.4 °F 39% 30.29 in 10.0 mi North 9.2 mph 17.3 mph N/A   Clear
1:35 PM 67.1 °F 41.9 °F 40% 30.27 in 10.0 mi North 9.2 mph - N/A   Clear
2:15 PM 67.8 °F 39.0 °F 35% 30.26 in 10.0 mi NW 8.1 mph - N/A   Clear
2:35 PM 68.4 °F 38.3 °F 33% 30.26 in 10.0 mi NNW 8.1 mph - N/A   Clear
2:55 PM 69.1 °F 37.4 °F 31% 30.26 in 10.0 mi North 3.5 mph - N/A   Clear
3:15 PM 68.9 °F 38.1 °F 32% 30.25 in 10.0 mi North 6.9 mph - N/A   Clear
3:35 PM 69.1 °F 36.1 °F 30% 30.25 in 10.0 mi North 6.9 mph - N/A   Clear
3:55 PM 69.1 °F 37.4 °F 31% 30.25 in 10.0 mi North 9.2 mph - N/A   Clear
4:15 PM 68.9 °F 37.9 °F 32% 30.24 in 10.0 mi NNE 8.1 mph - N/A   Clear
4:35 PM 68.9 °F 37.0 °F 31% 30.24 in 10.0 mi NNE 6.9 mph - N/A   Clear
4:55 PM 68.2 °F 36.0 °F 31% 30.25 in 10.0 mi North 8.1 mph - N/A   Clear
5:15 PM 67.6 °F 37.4 °F 33% 30.26 in 10.0 mi North 5.8 mph - N/A   Clear
5:35 PM 66.7 °F 37.6 °F 34% 30.26 in 10.0 mi North 5.8 mph - N/A   Clear
5:55 PM 65.1 °F 38.1 °F 37% 30.26 in 10.0 mi NNE 3.5 mph - N/A   Clear
6:15 PM 62.8 °F 39.4 °F 42% 30.27 in 10.0 mi Calm Calm - N/A   Clear
6:35 PM 61.2 °F 40.3 °F 46% 30.27 in 10.0 mi NNE 3.5 mph - N/A   Clear
7:15 PM 57.6 °F 47.3 °F 69% 30.28 in 10.0 mi East 3.5 mph - N/A   Clear
7:35 PM 56.5 °F 47.3 °F 71% 30.29 in 10.0 mi ENE 4.6 mph - N/A   Clear
7:55 PM 55.6 °F 47.3 °F 74% 30.30 in 10.0 mi Calm Calm - N/A   Clear
8:15 PM 55.0 °F 47.3 °F 75% 30.30 in 10.0 mi Calm Calm - N/A   Clear
8:35 PM 53.6 °F 47.3 °F 79% 30.30 in 10.0 mi Calm Calm - N/A   Clear
8:55 PM 52.9 °F 47.1 °F 81% 30.31 in 10.0 mi Calm Calm - N/A   Clear
9:15 PM 52.9 °F 47.1 °F 81% 30.31 in 10.0 mi Calm Calm - N/A   Clear
9:35 PM 52.0 °F 46.9 °F 83% 30.31 in 10.0 mi Calm Calm - N/A   Clear
9:55 PM 50.2 °F 46.4 °F 87% 30.31 in 10.0 mi Calm Calm - N/A   Clear
10:15 PM 50.0 °F 46.0 °F 86% 30.31 in 10.0 mi Calm Calm - N/A   Clear
10:35 PM 49.3 °F 44.6 °F 84% 30.32 in 10.0 mi Calm Calm - N/A   Clear
10:55 PM 47.3 °F 44.4 °F 90% 30.32 in 10.0 mi Calm Calm - N/A   Clear
11:15 PM 47.7 °F 44.6 °F 89% 30.32 in 10.0 mi Calm Calm - N/A   Clear
11:35 PM 47.7 °F 44.6 °F 89% 30.32 in 10.0 mi Calm Calm - N/A   Clear